DO1SC Weather Reports


time (UTC)temp
F
wind
direction
speed
knots
gust
knots
rain 1hr
in
rain 24hr
in
rain mn
in
humidity
%
barometer
mb
20260507100038 48 300 3.5 5.2 0.00 0.00 0.00 94 1012.7
20260507095027 48 301 2.6 7.8 0.00 0.00 0.00 95 1012.7
20260507094018 48 298 2.6 8.7 0.00 0.00 0.00 95 1012.4
20260507093030 48 300 3.5 6.1 0.00 0.00 0.00 94 1012.4
20260507092022 48 293 2.6 5.2 0.00 0.00 0.00 94 1012.2
20260507091037 48 295 3.5 5.2 0.00 0.00 0.00 94 1012.1
20260507090025 49 314 4.3 7.8 0.00 0.00 0.00 93 1012.0
20260507085020 49 292 3.5 7.8 0.00 0.00 0.00 92 1011.8
20260507084028 49 290 3.5 6.1 0.00 0.00 0.00 93 1011.7
20260507083020 48 301 3.5 7.0 0.00 0.00 0.00 93 1011.7
20260507082032 48 295 3.5 7.8 0.00 0.00 0.00 94 1011.5
20260507081023 48 288 3.5 7.8 0.00 0.00 0.00 94 1011.4
20260507080035 48 297 3.5 7.8 0.00 0.00 0.00 94 1011.3
20260507075027 48 303 2.6 5.2 0.00 0.00 0.00 94 1011.2
20260507074018 49 292 2.6 5.2 0.00 0.00 0.00 95 1011.2
20260507073030 48 320 1.7 3.5 0.00 0.00 0.00 96 1011.0
20260507072021 48 308 1.7 4.3 0.00 0.00 0.00 96 1010.8
20260507071034 48 307 1.7 3.5 0.00 0.00 0.00 96 1010.7
20260507070025 48 275 2.6 4.3 0.00 0.00 0.00 96 1010.8
20260507065017 48 304 1.7 4.3 0.00 0.00 0.00 96 1010.6
20260507064029 48 282 1.7 5.2 0.00 0.00 0.00 96 1010.6
20260507063021 48 295 0.9 2.6 0.00 0.00 0.00 96 1010.4
20260507062032 48 300 1.7 5.2 0.00 0.00 0.00 96 1010.3
20260507061023 48 283 0.9 2.6 0.00 0.00 0.00 97 1010.3
20260507060035 48 278 0.9 4.3 0.00 0.00 0.00 97 1010.1
20260507055026 48 282 1.7 5.2 0.00 0.00 0.00 97 1009.9
20260507054018 48 293 2.6 6.1 0.00 0.00 0.00 97 1009.8
20260507053029 49 306 3.5 6.1 0.00 0.00 0.00 98 1009.7
20260507052020 49 20 1.7 3.5 0.00 0.00 0.00 98 1009.6
20260507051031 49 85 1.7 3.5 0.00 0.00 0.00 98 1009.3
20260507050022 49 102 1.7 5.2 0.00 0.00 0.00 98 1009.3
20260507045037 49 37 0.9 2.6 0.00 0.00 0.00 98 1009.3
20260507044025 49 110 0.9 3.5 0.00 0.00 0.00 98 1009.1
20260507043036 49 128 1.7 5.2 0.00 0.00 0.00 98 1009.0
20260507042027 49 116 1.7 4.3 0.00 0.00 0.00 98 1008.9
20260507041018 49 113 1.7 5.2 0.00 0.00 0.00 97 1008.9
20260507040030 49 109 2.6 7.0 0.00 0.00 0.00 97 1008.7
20260507035022 49 60 1.7 5.2 0.00 0.00 0.00 97 1008.8
20260507034033 49 97 1.7 4.3 0.00 0.00 0.00 97 1008.8
20260507033024 49 106 1.7 3.5 0.00 0.00 0.00 97 1008.7
20260507032019 49 92 1.7 3.5 0.00 0.00 0.00 97 1008.7
20260507031029 50 108 1.7 3.5 0.00 0.00 0.00 97 1008.7
20260507030020 50 117 1.7 3.5 0.00 0.00 0.00 97 1008.7
20260507025032 50 97 0.9 2.6 0.00 0.00 0.00 97 1008.7
20260507024023 50 83 0.9 2.6 0.00 0.00 0.00 97 1008.7
20260507023038 50 68 0.9 2.6 0.00 0.00 0.00 96 1008.8
20260507022026 50 85 1.7 3.5 0.00 0.00 0.00 97 1008.7
20260507021018 50 104 1.7 4.3 0.00 0.00 0.00 96 1008.7
20260507020030 50 84 1.7 3.5 0.00 0.00 0.00 96 1008.6
20260507015021 50 70 1.7 3.5 0.00 0.00 0.00 96 1008.7
20260507014033 50 78 1.7 3.5 0.00 0.00 0.00 96 1008.7
20260507013024 51 84 1.7 3.5 0.00 0.00 0.00 97 1008.5
20260507012035 50 130 0.9 2.6 0.00 0.00 0.00 96 1008.4
20260507011027 50 74 0.9 3.5 0.00 0.00 0.00 96 1008.3
20260507010018 50 86 1.7 2.6 0.00 0.00 0.00 96 1008.4
20260507005030 50 55 1.7 3.5 0.00 0.00 0.00 96 1008.4
20260507004021 51 38 1.7 3.5 0.00 0.00 0.00 96 1008.4
20260507003033 51 17 2.6 6.1 0.00 0.00 0.00 96 1008.3
20260507002024 51 210 0.9 3.5 0.00 0.00 0.00 95 1008.3
20260507001036 51 7 0.9 5.2 0.00 0.00 0.00 95 1008.4
20260507000027 51 180 1.7 7.0 0.00 0.00 0.00 95 1008.4
20260506235018 52 14 1.7 4.3 0.00 0.00 0.00 95 1008.6
20260506234031 52 73 0.9 3.5 0.00 0.00 0.00 95 1008.4
20260506233022 52 0.0 0.0 0.00 0.00 0.00 95 1008.3
20260506232034 52 0.0 0.0 0.00 0.00 0.00 94 1008.4
20260506231025 52 0.0 0.0 0.00 0.00 0.00 94 1008.3
20260506230020 52 0.0 1.7 0.00 0.00 0.00 94 1008.2
20260506225029 52 338 0.0 1.7 0.00 0.00 0.00 93 1008.3
20260506224020 52 76 0.0 1.7 0.00 0.00 0.00 91 1008.2
20260506223032 52 34 0.0 0.9 0.00 0.00 0.00 91 1008.2
20260506222024 52 65 0.0 1.7 0.00 0.00 0.00 89 1008.2
20260506221036 53 348 0.0 0.9 0.00 0.00 0.00 89 1008.1
20260506220029 53 0.0 0.0 0.00 0.00 0.00 89 1008.0
20260506215018 53 0.0 0.0 0.00 0.00 0.00 88 1008.1
20260506214028 53 0.0 0.0 0.00 0.00 0.00 86 1008.1
20260506213020 54 150 0.0 1.7 0.00 0.00 0.00 84 1007.9
20260506212032 55 0.0 0.9 0.00 0.00 0.00 82 1007.8
20260506211023 55 285 0.9 2.6 0.00 0.00 0.00 79 1007.7
20260506210035 55 273 1.7 3.5 0.00 0.00 0.00 77 1007.7
20260506205027 55 284 0.9 1.7 0.00 0.00 0.00 76 1007.7
20260506204018 55 326 0.9 2.6 0.00 0.00 0.00 76 1007.6
20260506203029 55 318 0.9 1.7 0.00 0.00 0.00 77 1007.7
20260506202021 56 0.0 0.0 0.00 0.00 0.00 77 1007.8
20260506201032 56 0.0 0.9 0.00 0.00 0.00 75 1007.6
20260506200027 56 269 0.0 2.6 0.00 0.00 0.00 73 1007.6
20260506195036 56 263 1.7 3.5 0.00 0.00 0.00 74 1007.5
20260506194027 56 261 0.9 3.5 0.00 0.00 0.00 76 1007.4
20260506193018 56 0.0 0.0 0.00 0.00 0.00 76 1007.2
20260506192030 56 0.0 0.0 0.00 0.00 0.00 75 1007.1
20260506191021 56 0.0 0.0 0.00 0.00 0.00 76 1006.9
20260506190032 57 0.0 0.9 0.00 0.00 0.00 75 1006.7
20260506185023 57 289 0.0 0.9 0.00 0.00 0.00 75 1006.7
20260506184035 57 0.0 0.9 0.00 0.00 0.00 73 1006.6
20260506183027 57 0.0 0.9 0.00 0.00 0.00 73 1006.5
20260506182018 58 0.0 0.9 0.00 0.00 0.00 73 1006.4
20260506181029 58 281 0.9 1.7 0.00 0.00 0.00 72 1006.4
20260506180021 59 303 0.9 1.7 0.00 0.00 0.00 70 1006.4
20260506175035 59 145 0.0 1.7 0.00 0.00 0.00 68 1006.4
20260506174023 59 174 0.0 0.9 0.00 0.00 0.00 67 1006.4
20260506173038 60 201 0.0 0.9 0.00 0.00 0.00 67 1006.2
20260506172026 60 0.0 0.9 0.00 0.00 0.00 67 1006.0
20260506171018 60 314 0.0 1.7 0.00 0.00 0.00 66 1006.0
20260506170029 60 0.0 0.9 0.00 0.00 0.00 64 1005.9
20260506165021 60 264 0.0 1.7 0.00 0.00 0.00 63 1006.1
20260506164036 60 35 0.0 0.9 0.00 0.00 0.00 63 1006.1
20260506163024 61 319 0.0 1.7 0.00 0.00 0.00 62 1006.2
20260506162036 61 275 0.0 2.6 0.00 0.00 0.00 62 1006.2
20260506161028 61 336 0.0 1.7 0.00 0.00 0.00 59 1006.1
20260506160019 62 328 0.9 1.7 0.00 0.00 0.00 59 1006.2
20260506155031 62 330 0.9 2.6 0.00 0.00 0.00 58 1006.1
20260506154022 62 149 0.9 3.5 0.00 0.00 0.00 54 1006.1
20260506153034 62 18 0.9 1.7 0.00 0.00 0.00 56 1006.2
20260506152025 62 352 0.0 1.7 0.00 0.00 0.00 57 1006.3
20260506151020 62 3 0.9 2.6 0.00 0.00 0.00 58 1006.4
20260506150029 62 163 0.9 2.6 0.00 0.00 0.00 58 1006.4
20260506145020 62 312 0.9 1.7 0.00 0.00 0.00 58 1006.5
20260506144032 62 330 1.7 4.3 0.00 0.00 0.00 57 1006.6
20260506143024 62 7 0.9 3.5 0.00 0.00 0.00 56 1006.5
20260506142036 63 318 0.9 3.5 0.00 0.00 0.00 56 1006.5
20260506141027 62 310 0.9 2.6 0.00 0.00 0.00 56 1006.4
20260506140018 62 135 0.9 2.6 0.00 0.00 0.00 58 1006.5
20260506135030 62 34 0.9 2.6 0.00 0.00 0.00 56 1006.6
20260506134022 61 120 0.9 2.6 0.00 0.00 0.00 58 1006.7
20260506133033 62 85 1.7 3.5 0.00 0.00 0.00 56 1006.8
20260506132024 62 7 0.9 2.6 0.00 0.00 0.00 59 1006.8
20260506131036 61 137 0.9 3.5 0.00 0.00 0.00 56 1006.8
20260506130027 61 327 0.9 1.7 0.00 0.00 0.00 58 1006.9
20260506125019 62 141 1.7 4.3 0.00 0.00 0.00 56 1006.9
20260506124031 62 159 1.7 4.3 0.00 0.00 0.00 59 1006.9
20260506123022 62 123 0.9 4.3 0.00 0.00 0.00 58 1007.0
20260506122034 61 132 1.7 3.5 0.00 0.00 0.00 60 1006.9
20260506121528 62 166 0.9 4.3 0.00 0.00 0.00 62 1007.1
20260506120519 61 132 1.7 7.8 0.00 0.00 0.00 65 1007.2
20260506120027 60 152 0.9 4.3 0.00 0.00 0.00 68 1007.1
20260506115019 59 342 0.9 2.6 0.00 0.00 0.00 71 1007.2
20260506114034 59 127 1.7 4.3 0.00 0.00 0.00 70 1007.2
20260506113026 59 115 0.9 4.3 0.00 0.00 0.00 71 1007.2
20260506112017 59 135 0.9 2.6 0.00 0.00 0.00 71 1007.2
20260506111030 58 138 0.9 4.3 0.00 0.00 0.00 71 1007.2
20260506110021 58 31 0.9 1.7 0.00 0.00 0.00 73 1007.2
20260506105033 59 26 0.9 3.5 0.00 0.00 0.00 73 1007.3
20260506104025 60 328 0.9 2.6 0.00 0.00 0.00 71 1007.2
20260506103018 59 22 1.7 2.6 0.00 0.00 0.00 70 1007.3
20260506102028 59 18 0.9 2.6 0.00 0.00 0.00 72 1007.3
20260506101020 58 78 1.7 5.2 0.00 0.00 0.00 73 1007.3